STARLINK-34911 (65325 NORAD) Tracking and Keplerian Element Data

This shows tracking and keplerian element data for the satellite.

Feedback or suggestion? Click here.




ElementValue
Catalog65325
NameSTARLINK-34911
Epoch Orbit1890
Epoch Day354.00664638
Epoch Year2025
RAAN217.105
Inclination53.1581
Eccentricity0.0001228
Argument of Perigee86.0425
Mean Anonmoly274.0716
Mean Motion15.30206897
Decay Rate0.00016237
L11 65325U 25189C 25354.00664638 .00016237 00000+0 55901-3 0 9999
L22 65325 53.1581 217.1050 0001228 86.0425 274.0716 15.30206897 18906



Live tracking and technical data element details for STARLINK-34911 (NORAD 65325). STARLINK-34911 can be tracked NOW for your location showing map with azimuth and elevation plus other details from your city location.







IsCatalogInMostPopularTable: catalog: 65325, numindb: 5
Update: records affected: 1



GetName: 65325 STARLINK-34911

Hit Count: updated at: Sat, 11 Apr 2026 21:40:39 GMT